This is the latest recevied weather packets stored in our database for station/object JF2ZGN-13. If no packets are shown the sender has not sent any weather packets the latest 10 day(s).
| Time | Temp. | Humidity | Pressure | Rain* | Wind** | Luminosity | Snow |
|---|---|---|---|---|---|---|---|
| 1777731221 | 14.44° C | 40% | 906.4 hPa | 0 mm | - | - | - |
| 1777730621 | 13.89° C | 36% | 906.5 hPa | 0 mm | - | - | - |
| 1777730021 | 14.44° C | 35% | 906.5 hPa | 0 mm | - | - | - |
| 1777729420 | 14.44° C | 31% | 906.4 hPa | 0 mm | - | - | - |
| 1777728820 | 14.44° C | 29% | 906.5 hPa | 0 mm | - | - | - |
| 1777728220 | 14.44° C | 28% | 906.6 hPa | 0 mm | - | - | - |
| 1777727619 | 14.44° C | 30% | 906.6 hPa | 0 mm | - | - | - |
| 1777727018 | 13.89° C | 35% | 906.5 hPa | 0 mm | - | - | - |
| 1777726418 | 14.44° C | 32% | 906.5 hPa | 0 mm | - | - | - |
| 1777725817 | 13.89° C | 34% | 906.5 hPa | 0 mm | - | - | - |
| 1777725217 | 13.89° C | 37% | 906.4 hPa | 0 mm | - | - | - |
| 1777724617 | 13.89° C | 44% | 906.3 hPa | 0 mm | - | - | - |
| 1777724017 | 14.44° C | 45% | 906.2 hPa | 0 mm | - | - | - |
| 1777723416 | 14.44° C | 45% | 906.1 hPa | 0 mm | - | - | - |
| 1777722815 | 14.44° C | 45% | 906 hPa | 0 mm | - | - | - |
| 1777722216 | 14.44° C | 45% | 906 hPa | 0 mm | - | - | - |
| 1777721615 | 13.89° C | 43% | 905.8 hPa | 0 mm | - | - | - |
| 1777721014 | 13.89° C | 43% | 905.8 hPa | 0 mm | - | - | - |
| 1777720414 | 14.44° C | 44% | 905.8 hPa | 0 mm | - | - | - |
| 1777719813 | 14.44° C | 41% | 905.7 hPa | 0 mm | - | - | - |
| 1777719212 | 15° C | 45% | 905.4 hPa | 0 mm | - | - | - |
| 1777718612 | 15° C | 41% | 905.2 hPa | 0 mm | - | - | - |
| 1777718012 | 15° C | 34% | 905.5 hPa | 0 mm | - | - | - |
| 1777717411 | 15° C | 35% | 905.3 hPa | 0 mm | - | - | - |
| 1777716810 | 15.56° C | 38% | 905.2 hPa | 0 mm | - | - | - |
* Rain since midnight (hover to see other rain measurements)
** Current wind speed in m/s (hover to see current wind gust speed)